Location: Quartzsite
(33.6639°N, 114.2299°W)
Time: 00:46:54
(UTC-07:00)

OTV 5 (USA 277) - Pass Details

Date: 03 June 2018
Orbit: 313 x 320 km, 54.5° (Epoch: 18 June)

Event Time Altitude Azimuth Distance (km) Brightness Sun altitude
Exits shadow 03:04:13 13° 350° (N) 1,082 ? -23.7°
Drops below altitude 10° 03:04:47 10° 1° (N) 1,216 ? -23.6°
Sets 03:07:16 0° 26° (NNE) 2,051 ? -23.3°
